Home   Weather   Liberec   Past weeks

Flag for Czech Republic Past Weather in Liberec, Czech Republic — Yesterday and Last 2 Weeks

Now
43 °F

Fog.


Feels Like: 43 °F
Forecast: 50 / 69 °F
Wind: 1 mph from Southeast

Location: Liberec

Current Time: Sep 28, 2016 at 3:47:33 AM

Latest Report: Sep 28, 2016 at 3:00 AM


Visibility: 2 mi

Pressure: 30.39 "Hg

Humidity: 97%

Dew Point: 42 °F

Location of LiberecLocation

Past Weather in Liberec — Graph

°F

Liberec Temperature Yesterday

Maximum temperature yesterday: 66 °F (at 2:00 PM)
Minimum temperature yesterday: 41 °F (at 6:00 AM)
Average temperature yesterday: 51 °F

High & Low Weather Summary for the Past Weeks

 TemperatureHumidityPressure
High82 °F (Sep 13, 3:00 PM)99% (Sep 18, 8:00 PM)30.39 "Hg (Sep 18, 8:00 PM)
Low35 °F (Sep 22, 7:00 AM)27% (Sep 13, 3:00 PM)29.78 "Hg (Sep 17, 4:00 PM)
Average57 °F76%30.09 "Hg
* Reported Sep 13 2:00 AM — Sep 28 2:00 AM, Liberec, Weather by CustomWeather, © 2016

Note: Actual official high and low records may vary slightly from our data, if they occured in-between our weather recording intervals... More about our weather records

Advertising

Liberec Weather History for the Previous 24 Hours

Scroll right to see more
 ConditionsComfort  
Time TempWeatherWind HumidityBarometerVisibility
2:00 AM
Wed, Sep 28
45 °FFog.1 mph97%30.37 "Hg2 mi
1:00 AM45 °FFog.2 mph97%30.38 "Hg2 mi
12:00 AM47 °FFog.1 mph97%30.38 "Hg3 mi
11:00 PM
Tue, Sep 27
44 °FFog.1 mph96%30.39 "Hg2 mi
10:00 PM47 °FClear.1 mph94%30.38 "Hg6 mi
9:00 PM48 °FClear.No wind89%30.38 "Hg9 mi
8:00 PM51 °FClear.1 mph82%30.36 "Hg11 mi
7:00 PM54 °FCool.1 mph76%30.34 "Hg9 mi
6:00 PM62 °FMild.1 mph60%30.30 "Hg12 mi
5:00 PM64 °FPassing clouds.2 mph51%30.29 "Hg22 mi
2:00 PM66 °FPassing clouds.2 mph44%30.29 "Hg22 mi
1:00 PM64 °FPassing clouds.2 mph46%30.29 "Hg22 mi
12:00 PM63 °FPassing clouds.3 mph49%30.28 "Hg19 mi
11:00 AM60 °FPassing clouds.1 mph51%30.28 "Hg19 mi
8:00 AM44 °FPassing clouds.1 mph96%30.30 "Hg12 mi
7:00 AM42 °FQuite cool.1 mph97%30.29 "Hg8 mi
6:00 AM41 °FQuite cool.1 mph97%30.28 "Hg6 mi
5:00 AM42 °FQuite cool.1 mph96%30.27 "Hg9 mi
4:00 AM42 °FQuite cool.1 mph97%30.27 "Hg11 mi
3:00 AM42 °FQuite cool.1 mph97%30.26 "Hg6 mi
Weather by CustomWeather, © 2016

See weather overviewHow to use our weather pages